Wind_Speed
60 64 66 66 67 68 70 74 76 78 79 80 80 80 77 74 69 65 65 62 55 53 57 58 55 51 49 47 45 45 45 45 45 44 42 37 33 30 27 27 26 24
57 62 64 66 67 68 70 74 77 79 80 81 82 81 79 76 71 68 67 66 62 57 57 62 61 55 51 50 48 46 46 45 45 46 43 38 37 37 34 31 29 29
54 59 62 65 66 68 70 74 78 80 81 82 83 83 82 78 74 71 71 70 69 65 61 64 66 60 55 53 50 47 46 45 46 46 44 40 39 39 37 35 34 37
51 56 60 63 65 68 71 74 78 82 84 84 84 85 84 82 78 75 75 74 74 71 65 63 65 63 59 55 52 49 47 46 46 46 47 44 38 36 35 36 39 41
50 54 59 62 65 67 71 75 78 83 86 86 85 86 87 85 82 79 78 78 77 75 69 64 64 63 60 57 53 50 48 48 48 47 48 48 42 38 37 38 39 37
49 53 57 61 64 67 71 76 79 83 87 88 87 88 89 88 85 82 80 79 78 76 72 67 65 64 60 57 55 52 52 52 51 49 48 46 43 41 39 38 35 33
47 51 56 60 63 67 71 76 80 83 87 89 88 88 91 90 87 85 83 81 77 74 71 69 67 65 62 59 57 55 55 55 54 52 49 46 44 43 41 36 31 30
46 50 54 59 63 66 70 75 81 84 86 89 89 89 91 92 90 87 85 82 78 74 71 68 67 66 64 62 59 58 58 57 56 54 53 50 48 46 43 37 30 29
46 49 52 57 61 65 69 74 81 85 87 89 90 89 91 92 90 89 88 85 80 76 72 69 67 67 66 65 64 62 61 59 57 56 56 55 52 50 47 42 38 38
46 49 51 55 59 64 69 74 80 85 87 89 91 90 90 91 90 89 89 87 82 78 75 72 69 68 68 68 67 66 64 63 59 56 57 56 55 52 50 47 46 49
46 48 51 53 57 62 67 73 79 85 88 89 91 91 91 91 90 89 89 87 83 80 77 74 72 71 70 69 69 68 68 67 64 59 57 57 57 55 53 51 51 55
44 47 49 52 55 59 65 71 77 84 89 90 92 93 92 92 91 89 88 87 84 81 80 78 75 73 72 70 69 70 70 71 69 64 61 59 59 59 58 55 54 56
43 45 48 51 54 57 61 68 75 82 88 91 92 93 94 93 92 91 90 88 84 81 80 80 77 75 74 73 72 73 74 73 72 70 67 64 64 65 64 62 57 52
41 43 46 49 53 55 58 64 71 79 86 90 92 94 95 95 93 92 92 89 85 81 79 80 79 77 76 76 75 76 76 76 74 73 72 71 71 72 72 70 63 53
39 42 44 48 51 54 56 60 67 75 82 89 92 93 95 96 95 93 93 91 88 82 78 78 80 80 79 78 77 77 77 77 76 75 75 75 75 77 78 76 70 63
38 40 42 45 48 52 54 57 62 70 77 85 90 93 94 96 96 95 93 91 90 86 81 79 81 81 81 79 78 77 78 78 78 77 77 76 76 78 78 77 75 73
36 39 40 43 45 49 52 55 59 65 72 80 87 92 94 95 96 97 95 92 92 90 85 82 82 82 81 80 79 79 79 80 79 79 78 77 77 77 76 75 75 75
35 37 39 40 43 45 49 52 56 60 67 74 82 88 93 95 96 97 97 95 94 93 90 84 82 83 83 81 81 81 81 81 81 80 80 80 80 79 78 77 75 75
32 36 38 39 41 43 46 49 53 57 62 68 76 83 89 93 95 96 97 98 96 95 93 88 83 83 84 84 83 82 82 82 82 81 81 81 81 81 81 79 77 76
29 33 36 38 39 41 43 47 50 54 59 64 70 77 83 89 94 96 97 98 98 97 96 93 88 84 84 85 85 85 84 83 82 82 82 82 82 82 82 80 78 77
26 29 33 36 38 39 41 44 48 51 56 60 65 71 77 83 89 94 96 97 98 98 97 96 93 89 86 85 86 86 86 85 84 83 82 82 83 83 82 81 79 78
23 26 29 33 36 38 40 43 46 49 53 57 61 66 71 77 83 88 93 96 97 98 98 96 95 93 90 87 86 87 87 87 86 85 84 83 83 83 83 82 81 80
20 23 26 29 32 36 39 41 44 47 50 54 58 62 66 71 77 82 88 92 95 97 98 97 96 95 94 91 88 87 87 87 87 86 85 85 85 84 83 82 81 80
17 20 22 26 29 32 36 39 42 44 47 50 53 58 62 66 71 76 81 86 91 94 96 97 97 96 96 95 91 89 87 87 87 86 86 86 86 85 84 83 81 80
15 17 19 22 26 29 33 36 39 41 44 45 48 53 57 61 66 71 76 80 85 90 93 95 96 97 98 98 95 92 89 88 87 87 86 86 86 86 85 84 82 81
14 15 17 19 23 26 29 33 36 38 40 42 44 47 52 57 61 66 70 75 80 84 88 92 94 96 97 99 99 97 94 91 89 88 87 87 86 86 86 84 83 83
Wind_Direction
220 219 217 213 209 206 204 203 204 206 206 204 204 207 208 208 208 209 208 205 206 210 212 210 205 203 203 204 207 212 213 214 214 211 210 209 208 209 215 225 225 220
220 219 217 215 210 206 204 203 204 205 205 204 204 206 208 206 207 209 206 204 204 204 208 209 205 203 204 205 207 212 215 214 215 213 210 206 202 200 204 214 221 225
220 219 217 215 211 207 204 203 203 203 204 203 203 205 207 205 205 207 206 205 205 204 206 207 206 205 205 205 206 211 213 213 215 213 208 202 199 198 203 209 215 225
219 218 217 216 212 208 205 203 203 202 202 202 202 204 206 205 205 207 207 207 208 207 207 206 205 205 205 205 206 209 210 211 214 211 206 209 211 207 208 212 217 228
220 218 217 215 213 209 205 203 203 202 202 203 203 203 205 206 206 207 207 208 210 210 209 207 206 206 205 205 206 208 208 209 211 210 208 215 219 213 212 215 222 233
222 219 217 215 213 210 206 204 203 202 202 204 203 202 204 206 206 207 208 209 211 211 210 210 209 208 207 206 206 208 208 208 209 210 210 213 213 211 213 218 226 236
223 221 218 215 213 211 207 204 203 203 203 204 204 202 203 205 207 208 209 210 210 210 210 211 210 209 208 206 206 207 209 209 209 209 211 212 211 211 213 216 227 238
225 223 219 216 214 211 208 205 203 203 203 205 205 204 203 204 207 209 210 211 211 210 210 210 210 209 208 207 206 207 209 210 209 210 211 213 214 214 212 212 219 231
226 224 222 218 215 212 209 206 204 203 204 205 206 205 204 204 206 209 210 211 211 211 210 209 208 208 209 209 208 208 210 211 211 211 212 213 215 217 214 210 210 218
227 225 223 220 217 213 210 207 205 204 204 205 207 207 205 205 206 208 210 211 212 212 211 210 208 208 208 209 209 209 210 212 212 211 211 214 217 217 213 209 209 215
229 226 224 222 219 215 212 209 206 204 205 206 207 208 207 206 207 208 209 211 211 212 211 211 209 208 208 209 210 210 211 213 214 212 211 213 216 215 212 212 214 218
230 227 225 223 221 218 214 211 208 206 205 206 207 208 209 208 207 208 209 210 211 212 212 211 210 209 210 210 210 211 212 214 216 216 214 213 215 216 216 217 219 223
230 228 225 224 222 220 216 213 210 207 206 207 207 208 210 210 209 209 209 210 211 212 212 212 212 211 211 212 212 213 214 215 217 218 218 216 216 218 220 222 222 226
231 228 225 224 223 221 219 215 212 210 208 208 208 209 210 211 210 209 209 210 210 212 213 213 212 212 212 213 213 215 217 218 219 219 220 221 221 221 222 224 226 228
231 230 227 224 223 222 220 218 215 212 210 209 209 209 210 211 212 211 210 210 210 212 213 213 212 213 213 214 214 215 217 219 220 221 222 223 224 225 226 226 228 231
233 231 229 226 224 223 221 220 217 215 212 211 210 210 211 212 213 212 211 210 210 211 213 214 213 213 214 214 214 215 216 218 220 222 223 225 226 228 229 230 230 233
235 232 230 228 225 223 222 221 219 217 215 213 212 211 211 212 213 214 213 211 211 211 213 215 215 215 215 215 215 215 216 218 220 221 223 225 227 230 232 232 233 234
236 235 232 230 227 225 223 221 221 219 217 215 214 213 213 213 213 214 214 213 212 212 212 215 217 217 217 217 217 217 218 218 219 221 223 225 227 230 232 234 235 236
236 235 234 232 229 226 223 221 221 220 219 218 216 214 214 214 214 214 215 215 214 214 213 214 217 219 219 219 219 219 219 220 220 221 223 225 227 230 232 234 235 236
235 235 234 234 232 228 225 223 221 220 220 219 218 216 215 215 215 215 215 215 216 216 215 214 216 219 221 221 221 221 221 221 222 222 223 225 227 229 231 233 234 236
236 235 234 234 233 231 228 225 222 221 220 220 219 218 217 216 216 216 216 217 217 217 217 216 217 219 221 222 222 222 223 223 223 224 225 226 228 229 231 232 233 235
237 235 233 232 232 231 229 227 224 222 220 219 220 219 218 217 217 217 217 217 218 218 218 218 218 218 220 223 223 223 224 225 225 226 227 228 229 230 231 232 233 235
240 237 235 233 233 232 230 228 226 224 222 220 219 220 220 218 218 218 218 218 218 219 219 219 219 218 219 222 223 224 225 226 227 228 229 229 230 231 232 233 234 235
245 240 237 234 233 233 231 229 227 226 224 222 220 220 220 220 219 219 219 219 219 219 219 220 220 219 219 220 223 224 226 227 228 229 230 231 232 233 233 234 235 236
254 246 240 237 234 233 232 230 228 227 225 223 221 220 221 221 221 220 220 220 220 220 220 220 220 220 220 220 222 224 226 227 228 230 231 232 233 234 235 235 236 237
260 253 247 241 237 234 232 231 229 227 226 225 223 221 220 221 222 221 221 221 221 221 221 221 221 221 221 221 222 223 225 227 228 230 231 233 234 235 236 237 238 238
Height
10574 10579 10586 10593 10601 10607 10613 10619 10625 10630 10635 10642 10648 10654 10660 10666 10670 10675 10680 10685 10688 10691 10697 10702 10705 10709 10713 10717 10721 10724 10726 10728 10731 10734 10735 10736 10736 10735 10737 10741 10743 10746
10569 10574 10580 10586 10594 10601 10607 10613 10618 10623 10629 10636 10642 10648 10654 10660 10665 10669 10674 10678 10680 10683 10688 10694 10699 10704 10708 10712 10716 10719 10722 10725 10727 10730 10732 10733 10733 10733 10734 10736 10739 10743
10564 10568 10574 10580 10587 10594 10600 10606 10612 10617 10623 10630 10636 10642 10648 10654 10659 10663 10667 10671 10673 10675 10679 10685 10692 10699 10704 10708 10712 10715 10718 10721 10723 10726 10729 10732 10731 10730 10729 10731 10735 10738
10559 10563 10568 10574 10580 10587 10594 10599 10605 10611 10617 10623 10629 10636 10642 10648 10652 10656 10660 10664 10666 10669 10674 10681 10688 10694 10699 10703 10707 10710 10713 10716 10719 10721 10725 10728 10728 10727 10726 10728 10731 10734
10554 10557 10562 10567 10574 10580 10587 10593 10599 10605 10611 10616 10623 10629 10636 10641 10646 10650 10654 10657 10660 10664 10671 10678 10684 10689 10695 10699 10703 10706 10709 10712 10715 10717 10720 10722 10723 10724 10725 10726 10729 10732
10549 10552 10556 10561 10567 10574 10580 10586 10592 10599 10605 10610 10616 10623 10628 10634 10639 10643 10648 10651 10655 10661 10668 10674 10680 10685 10691 10695 10699 10702 10705 10708 10711 10714 10716 10718 10720 10721 10723 10725 10727 10730
10544 10547 10551 10556 10561 10567 10573 10580 10586 10593 10598 10604 10611 10617 10622 10628 10632 10637 10642 10646 10651 10658 10665 10670 10676 10681 10687 10691 10695 10698 10701 10704 10707 10710 10713 10715 10717 10718 10719 10722 10724 10726
10539 10542 10546 10550 10555 10561 10567 10573 10580 10586 10592 10598 10605 10611 10616 10621 10626 10631 10636 10642 10648 10654 10660 10666 10672 10677 10682 10686 10690 10693 10696 10699 10703 10706 10709 10712 10714 10715 10716 10718 10720 10723
10533 10537 10541 10545 10550 10555 10561 10567 10573 10580 10585 10591 10598 10604 10610 10615 10620 10625 10630 10636 10643 10649 10655 10661 10667 10672 10677 10681 10685 10688 10691 10695 10699 10702 10705 10708 10710 10712 10712 10714 10717 10720
10528 10531 10535 10540 10544 10549 10554 10560 10566 10573 10579 10584 10591 10597 10603 10608 10614 10619 10625 10631 10637 10643 10649 10655 10661 10667 10671 10675 10679 10683 10686 10690 10693 10697 10701 10704 10706 10707 10709 10711 10713 10714
10522 10526 10530 10534 10539 10543 10548 10553 10559 10566 10572 10578 10584 10590 10596 10602 10608 10613 10619 10625 10631 10637 10643 10649 10655 10660 10665 10670 10675 10679 10682 10684 10688 10691 10695 10699 10701 10703 10705 10707 10708 10708
10517 10520 10524 10528 10533 10537 10542 10547 10553 10559 10565 10571 10577 10583 10589 10595 10601 10606 10612 10619 10624 10630 10636 10643 10649 10654 10659 10664 10669 10673 10676 10679 10683 10687 10690 10693 10696 10698 10700 10702 10703 10704
10511 10515 10519 10523 10527 10531 10536 10541 10547 10552 10558 10564 10570 10576 10582 10588 10594 10600 10606 10612 10618 10624 10630 10637 10643 10649 10654 10658 10663 10666 10669 10672 10677 10681 10685 10688 10690 10692 10695 10697 10699 10701
10506 10509 10513 10517 10520 10525 10530 10535 10541 10546 10552 10557 10563 10570 10575 10581 10587 10593 10599 10606 10612 10618 10624 10631 10638 10643 10646 10650 10655 10659 10662 10667 10671 10676 10679 10682 10684 10686 10688 10691 10694 10698
10501 10504 10507 10511 10515 10519 10524 10529 10534 10540 10545 10551 10557 10563 10569 10575 10581 10586 10592 10599 10606 10612 10618 10625 10630 10634 10637 10642 10648 10653 10657 10662 10666 10671 10674 10677 10679 10680 10682 10686 10690 10693
10497 10499 10502 10506 10510 10514 10518 10523 10528 10533 10539 10544 10550 10556 10563 10568 10574 10580 10587 10594 10601 10607 10611 10616 10620 10624 10630 10637 10643 10647 10651 10655 10660 10664 10668 10671 10674 10674 10677 10682 10687 10690
10492 10495 10498 10501 10505 10509 10513 10518 10522 10527 10532 10537 10543 10549 10556 10561 10567 10573 10581 10588 10593 10599 10603 10606 10612 10618 10625 10631 10636 10640 10645 10649 10653 10658 10662 10665 10667 10669 10672 10677 10681 10684
10488 10490 10493 10497 10500 10504 10508 10512 10516 10520 10525 10530 10536 10542 10548 10554 10560 10567 10573 10579 10585 10591 10596 10601 10607 10613 10619 10624 10629 10633 10637 10642 10646 10651 10655 10658 10661 10663 10666 10670 10674 10677
10484 10486 10489 10491 10495 10498 10502 10506 10510 10514 10518 10523 10529 10535 10541 10547 10553 10560 10566 10572 10577 10584 10590 10596 10601 10605 10611 10617 10621 10626 10630 10635 10640 10644 10648 10651 10654 10656 10659 10664 10667 10670
10480 10482 10484 10487 10490 10493 10496 10500 10504 10508 10512 10516 10521 10527 10534 10540 10546 10553 10559 10564 10570 10576 10583 10590 10595 10598 10603 10609 10614 10619 10623 10628 10633 10637 10641 10644 10647 10650 10653 10657 10661 10663
10477 10478 10480 10482 10485 10488 10491 10494 10498 10502 10506 10510 10514 10520 10526 10532 10539 10545 10551 10557 10562 10569 10576 10583 10589 10592 10596 10601 10607 10612 10616 10621 10625 10629 10633 10636 10640 10643 10646 10650 10653 10657
10473 10474 10476 10478 10480 10483 10486 10489 10492 10496 10499 10503 10508 10513 10519 10525 10531 10537 10543 10549 10555 10561 10568 10575 10582 10586 10590 10594 10599 10604 10608 10613 10617 10622 10626 10630 10633 10636 10638 10642 10646 10650
10470 10471 10473 10474 10476 10478 10481 10483 10487 10490 10494 10498 10502 10507 10512 10518 10524 10530 10536 10542 10548 10554 10560 10567 10574 10580 10584 10587 10592 10596 10600 10605 10610 10615 10619 10622 10624 10627 10631 10635 10640 10645
10467 10468 10469 10470 10472 10474 10476 10479 10482 10485 10489 10493 10498 10503 10507 10512 10518 10523 10529 10535 10541 10546 10553 10559 10566 10572 10577 10581 10585 10589 10593 10597 10602 10607 10610 10613 10617 10620 10624 10629 10634 10638
10464 10465 10466 10467 10468 10470 10472 10474 10477 10481 10484 10489 10494 10498 10502 10507 10511 10517 10522 10527 10533 10539 10545 10551 10557 10563 10569 10573 10577 10581 10585 10589 10594 10598 10602 10606 10610 10613 10617 10622 10627 10631
10462 10462 10463 10464 10465 10466 10468 10470 10473 10477 10480 10484 10489 10493 10497 10501 10506 10510 10515 10520 10526 10532 10537 10543 10549 10555 10560 10566 10570 10574 10578 10582 10586 10590 10594 10598 10602 10605 10609 10615 10619 10620